Погода в Орске

Погода в Орске : погода сейчас, прогноз погоды и архив. Всё, что Вы хотите узнать о погоде в Орске!

Поиск расширенной информации на нашем сайте:

Другие новости

Новости СМИ2

Главная страница сайта

Новости сайта

02.10.2013

Напоминаем, что на нашем новом сайте вы можете получить высокодетализированные прогнозы погоды по пунктам России, СНГ и мира (включающие важные для авиации метеовеличины, такие как направление и скорость ветра, видимость, явления погоды, количество и форма облачности, нижняя и верхняя граница облачности), а также ознакомиться с разнообразными материалами по авиационной метеорологии и подборкой полезных ссылок на эту тему.

Сайт Метеоцентр.Азия посвящён разработке технологий оптимизации авиаметеорологического обслуживания, включая проектирование и перспективное создание нескольких автоматизированных авиаметеорологических систем:
- система выпуска высокодетальных прогностических карт явлений погоды для нижнего воздушного пространства по России и ближнему зарубежью;
- система верификации прогнозов TAF (выпускаемых синоптиками официальных АМСГ РФ и ближнего зарубежья) и AUTOTAF (выпускаемых сайтом Метеоцентр.Азия) - выявление ошибок, онлайн-сопоставление с фактической погодой METAR, автоматическое внесение коррективов в прогнозы при резком отклонении фактической погоды от прогноза, подсчёт оправдываемости прогнозов по элементам и в целом;
- система обработки, анализа и отображения авиаметеорологической информации для применения провайдерами метеорологической информации.

Рекомендуем: http://koira.pro/ мотобуксировщики ahtar отзывы.

Погода в Орске - сегодня

Время (UTC), дата Ветер
(°,м/с) 
Видим.   Явления Облачность Т
(°С)
Тd
(°С)
f(%) Тe
(°С)
Pmin
(гПа)
dP
(гПа)
Po
(мм)
O2
(г/м3)
Тmin Tmax R s Состояние
почвы
06 27.03.17 300 (СЗ) 10 км    10/10 1170 м 
[Sc]
-0.4 -7.4 59 1012.7  -0.6  733  297           
09 27.03.17 290 (З) 4000 м  слаб. снег  10/10 960 м 
[Sc]
-0.8 -4.6 75 1011.7  -1  732  296           
12 27.03.17 290 (З) 4000 м  слаб. снег  10/10 1200 м 
[Ns]
-1.4 -5.1 76 -1  1010.9  -0.8  732  297           
15 27.03.17 250 (З) 10 км  {снег}  8/8 1380 м 
[Sc]
-2.1 -5.9 75 -3  1010.9  -0.1  732  298    +0.2  0.7     
18 27.03.17 240 (ЮЗ) 10 км    6/0 средняя 
[Ac trans]
-4.5 -6.6 85 -7  1011.6  0.4  732  300           
21 27.03.17 160 (Ю) 10 км    6/0 средняя 
[Ac trans]
-6.5 -8.3 87 -8  1011.3  -0.6  731  303           
00 28.03.17 150 (ЮВ) 10 км    8/0 средняя 
[Ac trans]
-7.7 -9.3 88 -11  1009.9  -1.5  730  304           
03 28.03.17 160 (Ю) 0300 м  переохл. туман [диам. изморози 3 мм]  ?/?  
-5.4 -6.7 91 -9  1008.1  -1.4  729  300  -8.3      10  мокрый или
старый снег
50-90% 
06 28.03.17 160 (Ю) 4000 м  дымка{туман}  10/10 120 м 
[St]
-3.2 -4.3 92 -7  1005.6  -2.2  728  297           
09 28.03.17 240 (ЮЗ) 6-12{13}  10 км    9/8 300 м средняя 
[St|Ac trans]
+2 -0.6 83 -1  1003  -1.8  726  291           
12 28.03.17 240 (ЮЗ) 8-12{15}  10 км    10/9 630 м кучево-дожд., средняя 
[Cb cap|Ac und]
+1.6 -1.8 78 -2  1002.6  -0.5  726  291           
15 28.03.17 240 (ЮЗ) 8-11{14}  10 км  {ливн. осадки}  9/8 1500 м средняя 
[Sc|Ac trans]
+1.3 -2.5 76 -3  1003.2  0.5  726  291    +2.4  0.0     
18 28.03.17 240 (ЮЗ) 6{13}  10 км  {ливн. осадки}  8/0 средняя 
[Ac trans]
+1 -2.5 77 -2  1003.9  0.6  727  292           
21 28.03.17 210 (ЮЗ) 10 км    9/0 средняя 
[Ac trans]
-1.3 -3.9 82 -5  1003.8  -0.4  726  294           
00 29.03.17 210 (ЮЗ) 8-10{11}  10 км    9/0 средняя 
[Ac trans]
-1.1 -4 81 -6  1002.4  -1.3  725  294           
03 29.03.17 190 (Ю) 12-16{16}  4000 м  слаб. снег  10/10 240 м 
[Ns]
+0.4 -0.7 92 -5  999  -3  723  291  -1.8    0.3  10  равномерный
сухой снег
100% 
06 29.03.17 190 (Ю) 13-17{18}  4000 м  слаб. снег{дождь}  10/10 240 м 
[Ns]
+0.9 -0.4 91 -4  996.9  -2  722  290           
09 29.03.17 190 (Ю) 13-16{19}  10 км  слаб. ливневой дождь{снег}  9/9 720 м кучево-дожд. 
[Cb cap]
+1.8 -0.2 87 -3  995.5  -1.2  721  288           
12 29.03.17 200 (Ю) 9-12{18}  10 км  слаб. дождь{снег}  10/10 330 м 
[Ns]
+1.2 -0.6 88 -3  992.5  -3  719  288           
15 29.03.17 200 (Ю) 8-11{14}  10 км  {дождь}  10/10 570 м 
[Sc]
+0.3 -1.6 87 -4  992.1  -0.5  718  289    +1.8     
18 29.03.17 230 (ЮЗ) 11-15{16}  4000 м  слаб. снег  10/10 400 м 
[Frnb]
-0.2 -2.2 86 -5  989.2  -2.9  716  289           
21 29.03.17 260 (З) 9-18{18}  4000 м  метель{снег}  10/10 240 м 
[Ns]
-1.1 -2.9 88 -6  988.3  -0.9  715  290           
00 30.03.17 260 (З) 8-19{21}  4000 м  метель{снег}  10/10 360 м 
[Ns]
-3.7 -6 84 -9  994  5.1  719  294           
03 30.03.17 260 (З) 8-17{20}  4000 м  метель{снег}  8/6 300 м средняя 
[Frnb|Ac trans]
-4.9 -7.5 82 -10  998.5  4.1  722  297  -4.9    0.9  равномерный
сухой снег
100% 
06 30.03.17 260 (З) 8-17{20}  10 км  позёмок{снег}  8/8 500 м кучево-дожд. 
[Cb cap]
-4.8 -8.6 75 -10  1003.6  4.9  726  299  -5.3         
Время (UTC), дата Ветер
(°,м/с) 
Видим.   Явления Облачность Т
(°С)
Тd
(°С)
f(%) Тe
(°С)
Pmin
(гПа)
dP
(гПа)
Po
(мм)
O2
(г/м3)
Тmin Tmax R s Состояние
почвы

Для получения пояснительной информации подведите курсор к названию столбца.

ПОГОДА в Орске - архив

Всё, что Вы хотите узнать о погоде в Орске - удобно и подробно!

Выберите нужную дату (начиная с 1 января 2015* года) и нажмите кнопку "Найти".
Будут отображены архивные сводки погоды по пункту Орск, начиная с указанной даты.


Отображать данные в формате CSV (для использования в таблицах Excel)


Внимание! Наш архив погоды предназначен исключительно для личного некоммерческого использования в познавательных целях. Если Вам необходимы официальные справки о состоянии погоды (для производственных, юридических, коммерческих и т.п. целей), обращайтесь в органы Росгидромета.

*Примечание: данная дата относится к архиву по метеостанциям СССР (Россия, СНГ, Балтия).
Архив по метеостанциям Зарубежной Европы и Азии (кроме Китая) хранится 10 дней, по другим регионам земного шара (Китай, Африка, Америка, Австралия, Океания) - 1 день.

Орск - район местоположения метеостанции


Название, широта, долгота, высота метеостанции:
Орск 51.1°ш. 58.6°д. 285 м над ур. моря [Российская Федерация]

Дополнительная информация

В oтличие oт бoльшинства пoгoдных сайтoв мы публикуем пoдрoбную метеoинфoрмацию в детальнoм прoфессиoнальнoм фoрмате.

Характеристики температуры и влажнoсти вoздуха измеряются на высoте 2 м в тени вдали oт зданий и деревьев.
Скoрoсть ветра измеряется на высoте 10 м (на урoвне рoста челoвека скoрoсть ветра ниже в 1.5-2 раза). Если метеoстанция нахoдится в гoрoде или в лесу, тo скoрoсть ветра занижена на 2-4 м/с пo сравнению с oткрытым местoм. Скoрoсть ветра над акватoриями крупных рек и oзёр, а также на вершинах хoлмoв на 2-5 м/с выше, чем в oбычных услoвиях.
Атмoсфернoе давление в разных тoчках местнoсти мoжет значительнo oтличаться oт давления на метеoстанции, в зависимoсти oт услoвий рельефа (при пoдъёме на 10 м давление пoнижается примернo на 1 мм рт.ст.).